N894A SULS-SADF

Flight info

Callsign N894A
Flight time N/A
Altitude 18000
Route DCT LUCIO A306 DAGUS UGIMI ESLAN PTA EZE DCT
Aircraft TBM8/L-SG/C

Departure

Time 2026-04-29 02:35
Airport Capitan Corbeta CA Curbelo International Airport (SULS)

Arrival

Time N/A
Airport San Fernando Airport (SADF)
Time Latitude Longitude Altitude Speed Heading
2026-04-29 02:12 -34.85959 -55.09848 95 ft 0 kts 162°
2026-04-29 02:28 -34.85979 -55.09834 95 ft 5 kts 121°
2026-04-29 02:28 -34.85958 -55.09816 95 ft 7 kts
2026-04-29 02:28 -34.85886 -55.09827 95 ft 14 kts 342°
2026-04-29 02:29 -34.85812 -55.09855 95 ft 6 kts 342°
2026-04-29 02:29 -34.85774 -55.09870 95 ft 10 kts 341°
2026-04-29 02:29 -34.85734 -55.09886 95 ft 0 kts 342°
2026-04-29 02:31 -34.85715 -55.09895 96 ft 8 kts 340°
2026-04-29 02:31 -34.85681 -55.09908 96 ft 13 kts 339°
2026-04-29 02:32 -34.85677 -55.10035 96 ft 19 kts 252°
2026-04-29 02:32 -34.85723 -55.10203 94 ft 23 kts 252°
2026-04-29 02:32 -34.85773 -55.10391 94 ft 24 kts 251°
2026-04-29 02:32 -34.85823 -55.10583 94 ft 24 kts 251°
2026-04-29 02:33 -34.85875 -55.10776 95 ft 24 kts 252°
2026-04-29 02:33 -34.85928 -55.10970 94 ft 25 kts 253°
2026-04-29 02:33 -34.85989 -55.11148 94 ft 17 kts 237°
2026-04-29 02:33 -34.85987 -55.11193 95 ft 2 kts 44°
2026-04-29 02:34 -34.85983 -55.11182 95 ft 0 kts 72°
2026-04-29 02:34 -34.85953 -55.11071 94 ft 38 kts 72°
2026-04-29 02:34 -34.85815 -55.10548 94 ft 90 kts 72°
2026-04-29 02:35 -34.85590 -55.09713 272 ft 109 kts 68°
2026-04-29 02:35 -34.85434 -55.08834 681 ft 111 kts 89°
2026-04-29 02:35 -34.85691 -55.07904 1026 ft 123 kts 125°
2026-04-29 02:35 -34.86360 -55.07334 1429 ft 113 kts 172°
2026-04-29 02:36 -34.87062 -55.07305 1749 ft 95 kts 218°
2026-04-29 02:36 -34.87540 -55.07751 2014 ft 89 kts 246°
2026-04-29 02:36 -34.87556 -55.08475 2242 ft 100 kts 295°
2026-04-29 02:36 -34.87184 -55.09277 2513 ft 117 kts 291°
2026-04-29 02:37 -34.86926 -55.09909 2700 ft 129 kts 291°